Tracking 20241 objects as of 25-Jan-2020
HD Live streaming from Space Station
objects crossing your sky now

OKEAN O

Track OKEAN O now!
10-day predictions
OKEAN O is classified as:


NORAD ID: 25860
Int'l Code: 1999-039A
Perigee: 646.3 km
Apogee: 647.9 km
Inclination: 98.2 °
Period: 97.5 minutes
Semi major axis: 7018 km
RCS: 19.8052 m2 (large)
Launch date: July 17, 1999
Source: Commonwealth of Independent States (former USSR) (CIS)
Launch site: TYURATAM MISSILE AND SPACE COMPLEX (TTMTR)
aabbcc
Your satellite tracking list
Your tracking list is empty




NASA's NSSDC Master Catalog

Two Line Element Set (TLE):
1 25860U 99039A   20025.11143368  .00000023  00000-0  10894-4 0  9998
2 25860  98.2222  41.5248 0001139  64.6072 295.5255 14.76643058104306
Source of the keplerian elements: AFSPC